User: anonymous   Login
Location: SBMNH
(34.4407°N, 119.7157°W)
Time: 00:16:45
(UTC-07:00)
Language:

Tiangong - Orbit

View from above orbital plane
View from above orbital plane
View from above satellite
View from above satellite

Ground track
Ground track

The orbit data is extracted from the following two-line orbital elements,

1 48274U 21035A   22278.14440302  .00022902  00000-0  26626-3 0  9995
2 48274  41.4723 268.9359 0002357   3.6118  90.2900 15.61180125 81960
Epoch (UTC): 05 October 2022 03:27:56
Eccentricity: 0.0002357
inclination: 41.4723°
perigee height: 382 km
apogee height: 386 km
right ascension of ascending node: 268.9359°
argument of perigee: 3.6118°
revolutions per day: 15.61180125
mean anomaly at epoch: 90.2900°
orbit number at epoch: 8196

The dashed part of the orbit path shows where the satellite is in the earth's shadow,  

DLR